ZSHCZSQD

Guest
Details From ZSHC - XIAOSHAN
To ZSQD - LIUTING
Flight Number -
Tags decoded
Created
Modified
Stats Distance 416 nm / 770 km
Max Altitude 0 ft / 0 m
Waypoints 7
Social Downloads 0
Likes 0
Share VATSIM

Download

Looking for another format? Having issues loading an existing format? Contact us
Advertisement - Login to hide

Notes

Requested: ZSHC AND G204 JTN W116 PK V3 ODULO B221 XDX W174 TAO ZSQD Unmatched points: W116 V3 B221 XDX W174

Route

ZSHC AND G204 JTN PK ODULO TAO ZSQD

ID Type Via Altitude Latitude Longitude Leg Dist Tot Dist Heading (true) Name
O ZSHC APT - 0 ft / 0 m 30.22950˚ 120.43445˚ - 0 nm - XIAOSHAN
AND VOR - 0 ft / 0 m 30.25333˚ 121.21833˚ 40 nm 40 nm 88° / 88° ANDONG VOR-DME
JTN VOR G204 (AWY-HI) 0 ft / 0 m 31.12500˚ 121.34000˚ 52 nm 93 nm 7° / 7° JIUTING VOR-DME
PK NDB - 0 ft / 0 m 31.28667˚ 121.33000˚ 9 nm 103 nm 357° / 357° NANXIANG NDB
ODULO FIX - 0 ft / 0 m 33.16667˚ 121.62833˚ 113 nm 217 nm 8° / 8° -
TAO VOR - 0 ft / 0 m 36.28500˚ 120.37000˚ 197 nm 414 nm 342° / 341° QINGDAO VOR-DME
O ZSQD APT - 0 ft / 0 m 36.26611˚ 120.37443˚ 1 nm 415 nm 169° / 169° LIUTING

Altitude Profile

Advertisement - Login to hide

Weather


0- 5 10 15 20 25 30 35+ Temperature / ° C

Clouds and Precipitation
Forecast for 2018-05-22 12:00 UTC. Updated an hour ago

Ground ~20,000 ft ~40,000 ft Winds

ZSHC

Details ICAO ZSHC (HGH)
Name XIAOSHAN
Region China
Timezone Asia/Shanghai (UTC+8.0)
Stats Elevation 23 ft / 7 m (AMSL)
Location 30.229504° 120.434453°
Runways 1
Magnetic Variation 5.566° W

METAR

ZSHC 221000Z 33006MPS 300V360 9999 -RA BKN023 22/19 Q1010 NOSIG

Decode

TAF

Not found

Departure Runways

ID Width Length Bearing (true) Bearing (mag) Surface Threshold Offset Overrun Length
07 148 ft / 45 m 11,803 ft / 3,598 m 62.82° 68.39° Concrete 0 ft / 0 m 200 ft / 61 m
25 148 ft / 45 m 11,803 ft / 3,598 m 242.84° 248.41° Concrete 0 ft / 0 m 200 ft / 61 m

ZSQD

Details ICAO ZSQD (TAO)
Name LIUTING
Region China
Timezone Asia/Shanghai (UTC+8.0)
Stats Elevation 33 ft / 10 m (AMSL)
Location 36.266107° 120.374435°
Runways 1
Magnetic Variation 7.025° W

METAR

ZSQD 221000Z 35009MPS 9999 FEW030 19/12 Q1010 BECMG TL1140 35004MPS

Decode

TAF

Not found

Destination Runways

ID Width Length Bearing (true) Bearing (mag) Surface Threshold Offset Overrun Length
17 148 ft / 45 m 11,211 ft / 3,417 m 165.61° 172.64° Concrete 0 ft / 0 m 200 ft / 61 m
35 148 ft / 45 m 11,211 ft / 3,417 m 345.61° 352.64° Concrete 0 ft / 0 m 200 ft / 61 m

Approach Navaids

Runway Type Ident Frequency Range Bearing (true) Bearing (mag) Slope Elevation
17 Localiser INX 110.70 MHz 18 nm / 33 km 165.54° 172.57° - 33 ft / 10 m (AMSL)
17 Glidescope INX 110.70 MHz 10 nm / 19 km 165.61° 172.64° 3.00° 33 ft / 10 m (AMSL)
17 DME INX 110.70 MHz 18 nm / 33 km - - - 33 ft / 10 m (AMSL)
35 Localiser IPP 111.70 MHz 18 nm / 33 km 345.54° 352.56° - 33 ft / 10 m (AMSL)
35 Glidescope IPP 111.70 MHz 10 nm / 19 km 345.61° 352.64° 3.00° 33 ft / 10 m (AMSL)

Popular Alternatives